Probability
52 90 100 100 100 97 90 87 81 48 32 16 3 0 0 0 0 0 0 0 3 3 3 6 0 0 0 0 0 0 0 0 0 0 0 0 0 0 0 0 0 0 0
55 94 100 100 100 97 97 90 74 45 29 10 10 3 0 3 3 0 0 0 0 0 0 0 0 0 0 0 0 0 0 0 0 0 0 0 0 0 0 0 0 0 0
65 90 97 100 100 100 100 87 68 39 23 6 3 3 3 6 6 3 0 0 0 0 0 0 0 0 0 0 0 0 0 0 0 0 0 0 0 0 0 0 0 0 0
61 90 87 100 100 100 100 87 65 39 13 6 3 6 6 3 6 6 0 0 0 0 0 0 0 0 0 0 0 0 0 0 0 0 0 0 0 0 0 0 0 0 0
71 90 97 100 100 100 97 81 55 32 10 0 13 10 19 6 10 10 0 0 0 0 0 0 0 0 0 0 0 0 0 0 0 0 0 0 0 0 0 0 0 0 0
84 90 100 100 100 100 94 84 48 23 10 10 13 19 16 13 23 0 0 0 0 0 0 0 0 0 0 0 0 0 0 0 0 0 0 0 0 0 0 0 0 0 0
81 90 100 100 100 100 87 84 42 16 13 13 19 19 23 19 6 0 0 0 0 0 0 0 0 0 0 0 0 0 0 0 0 0 0 0 0 0 0 0 0 0 0
68 81 100 100 100 100 84 77 42 16 6 19 29 32 16 13 0 0 0 0 0 0 0 0 0 0 0 0 0 0 0 0 0 0 0 0 0 0 0 0 0 0 0
61 84 100 100 100 94 81 68 42 19 10 13 16 13 10 3 0 0 0 0 0 0 0 0 0 0 0 0 0 0 0 0 0 0 0 0 0 0 0 0 0 0 0
65 81 97 97 87 77 71 39 19 3 0 0 3 0 0 0 0 0 0 0 0 0 0 0 0 0 0 0 0 0 0 0 0 0 0 0 0 0 0 0 0 0 0
61 81 87 87 81 65 52 23 3 0 0 0 0 0 0 0 0 0 0 0 0 0 0 0 0 0 0 0 0 0 0 0 0 0 0 0 0 0 0 0 0 0 0
48 61 81 81 71 55 35 35 23 3 0 0 0 0 0 0 0 0 0 0 0 0 0 0 0 0 0 0 0 0 0 0 0 0 0 0 0 0 0 0 0 0 0
35 42 48 58 61 45 39 35 19 6 6 0 0 0 0 0 0 0 0 0 0 0 0 0 0 0 0 0 0 0 0 0 0 0 0 0 0 0 0 0 0 0 0
13 16 32 45 45 42 29 19 19 6 0 0 0 0 0 0 0 0 0 0 0 0 0 0 0 0 0 0 0 0 0 0 0 0 0 0 0 0 0 0 0 0 0
13 13 16 23 29 39 32 16 13 6 0 0 0 0 0 0 0 0 0 0 0 0 0 0 0 0 0 0 0 0 0 0 0 0 0 0 0 0 0 0 0 0 0
10 3 16 19 16 19 19 19 13 3 0 0 0 0 0 0 0 0 0 0 0 0 0 0 0 0 0 0 0 0 0 0 0 0 0 0 0 0 0 0 0 0 0
35 10 13 6 10 19 16 13 6 6 0 0 0 0 0 0 0 0 0 0 0 0 0 0 0 0 0 0 0 0 0 0 0 0 0 0 0 0 0 0 0 0 0
19 6 10 3 3 3 3 6 0 0 0 0 0 0 0 0 0 0 0 0 0 0 0 0 0 0 0 0 0 0 0 0 0 0 0 0 0 0 0 0 0 0 0
13 19 13 10 6 10 6 0 0 0 0 0 0 0 0 0 0 0 0 0 0 0 0 0 0 0 0 0 0 0 0 0 0 0 0 0 0 0 0 0 0 0 0
13 23 23 19 19 16 13 0 0 0 0 0 0 0 0 0 0 0 3 3 0 0 0 0 0 0 0 0 0 0 0 0 0 0 0 0 0 0 0 0 0 0 0
10 13 19 19 16 13 10 6 3 6 3 0 0 0 0 0 0 0 0 0 3 0 0 0 0 0 0 0 0 0 0 0 0 0 0 0 0 0 0 0 0 0 0
3 6 6 10 13 19 10 19 16 13 16 19 16 0 0 0 0 0 0 3 0 0 0 0 0 0 0 0 0 0 0 0 0 0 0 0 0 0 0 0 0 0 0
0 3 3 3 3 6 6 3 0 3 3 3 3 0 0 0 0 0 0 0 0 0 0 0 0 0 0 0 0 0 0 0 0 0 0 0 0 0 0 0 0 0 0
0 0 0 0 0 0 0 0 3 10 6 3 0 0 0 0 0 0 0 0 0 0 0 0 0 0 0 0 0 0 0 0 0 0 0 0 0 0 0 0 0 0 0
0 0 0 0 0 0 0 0 3 3 0 0 0 0 0 0 0 0 0 0 0 0 0 0 0 0 0 0 0 0 0 0 0 0 0 0 0 0 0 0 0 0 0
0 0 0 0 0 0 0 0 0 0 0 0 0 0 0 0 0 0 0 0 0 0 0 0 0 0 0 0 0 0 0 0 0 0 0 0 0 0 0 0 0 0 0
Height
5898 5899 5900 5901 5902 5903 5904 5904 5905 5905 5905 5906 5905 5905 5905 5904 5904 5903 5903 5902 5902 5901 5900 5899 5898 5897 5896 5895 5894 5893 5891 5890 5889 5887 5886 5884 5883 5881 5879 5877 5875 5873 5871
5897 5898 5899 5900 5901 5901 5902 5903 5904 5904 5904 5905 5905 5904 5904 5904 5903 5903 5902 5902 5901 5900 5899 5898 5897 5896 5895 5894 5893 5892 5890 5889 5888 5886 5885 5883 5881 5879 5878 5876 5874 5872 5870
5895 5896 5897 5898 5899 5900 5901 5902 5902 5903 5903 5904 5904 5903 5903 5903 5902 5902 5901 5901 5900 5899 5898 5897 5896 5895 5894 5893 5892 5891 5889 5888 5886 5885 5883 5881 5880 5878 5876 5874 5872 5870 5868
5893 5894 5895 5897 5897 5898 5899 5900 5901 5901 5902 5902 5903 5902 5902 5902 5902 5901 5900 5900 5899 5898 5897 5896 5895 5894 5893 5892 5891 5889 5888 5886 5885 5883 5881 5880 5878 5876 5874 5872 5870 5868 5866
5891 5892 5894 5895 5896 5897 5898 5898 5899 5900 5900 5901 5901 5901 5901 5901 5900 5900 5899 5899 5898 5897 5896 5895 5894 5893 5891 5890 5889 5888 5886 5885 5883 5882 5880 5878 5876 5874 5872 5870 5868 5866 5864
5888 5890 5892 5893 5894 5895 5896 5897 5898 5898 5899 5899 5900 5900 5900 5900 5899 5899 5898 5897 5896 5896 5895 5893 5892 5891 5890 5889 5887 5886 5885 5883 5881 5880 5878 5876 5874 5871 5869 5867 5865 5863 5861
5886 5888 5889 5891 5892 5894 5895 5896 5896 5897 5897 5898 5898 5898 5898 5898 5898 5897 5897 5896 5895 5894 5893 5892 5891 5890 5888 5887 5886 5884 5883 5881 5879 5877 5875 5873 5871 5869 5867 5865 5863 5860 5858
5882 5885 5887 5888 5890 5892 5893 5894 5895 5895 5896 5896 5896 5896 5896 5896 5896 5896 5895 5894 5893 5892 5891 5890 5889 5888 5886 5885 5884 5882 5880 5878 5877 5874 5872 5870 5868 5866 5864 5862 5860 5857 5855
5879 5882 5884 5885 5887 5889 5891 5892 5893 5893 5894 5894 5894 5894 5894 5894 5894 5894 5893 5892 5891 5890 5889 5888 5887 5885 5884 5883 5881 5880 5878 5876 5874 5872 5869 5867 5865 5863 5860 5858 5856 5854 5852
5876 5878 5880 5882 5884 5886 5888 5889 5890 5891 5892 5892 5892 5892 5892 5892 5892 5891 5891 5890 5889 5888 5887 5886 5885 5883 5882 5880 5879 5877 5875 5873 5871 5869 5866 5864 5862 5859 5857 5854 5852 5850 5847
5872 5874 5876 5879 5881 5883 5885 5886 5887 5888 5889 5889 5890 5890 5890 5890 5889 5889 5889 5888 5888 5887 5885 5884 5883 5881 5879 5878 5876 5874 5872 5870 5868 5866 5863 5861 5858 5856 5853 5851 5848 5846 5843
5867 5870 5872 5875 5877 5879 5881 5883 5884 5885 5886 5886 5887 5887 5887 5887 5887 5886 5886 5886 5885 5884 5883 5882 5880 5878 5877 5875 5873 5871 5869 5867 5865 5862 5860 5858 5855 5852 5849 5846 5844 5841 5838
5863 5866 5868 5871 5873 5875 5877 5879 5881 5882 5883 5883 5884 5884 5884 5884 5884 5883 5883 5882 5882 5881 5880 5879 5877 5875 5873 5872 5870 5867 5865 5863 5861 5858 5856 5853 5851 5848 5845 5842 5839 5836 5833
5858 5861 5864 5866 5869 5871 5873 5875 5876 5878 5879 5880 5880 5880 5880 5881 5880 5880 5879 5879 5878 5877 5876 5875 5874 5872 5870 5868 5866 5864 5861 5859 5856 5853 5851 5848 5845 5842 5839 5836 5833 5830 5827
5853 5856 5859 5862 5864 5866 5868 5870 5872 5873 5875 5876 5876 5876 5877 5877 5877 5876 5876 5875 5874 5874 5872 5871 5869 5868 5866 5864 5862 5859 5857 5854 5851 5848 5845 5842 5839 5836 5833 5830 5827 5824 5821
5848 5851 5854 5857 5859 5861 5864 5865 5867 5869 5870 5871 5872 5872 5872 5872 5872 5872 5871 5871 5870 5869 5868 5867 5865 5863 5861 5859 5857 5854 5852 5849 5846 5843 5839 5836 5833 5830 5827 5823 5820 5817 5814
5842 5846 5849 5851 5854 5856 5858 5860 5862 5864 5865 5866 5867 5867 5867 5868 5868 5867 5867 5866 5866 5865 5863 5862 5860 5858 5856 5854 5851 5849 5846 5843 5840 5836 5833 5829 5826 5823 5819 5816 5813 5810 5807
5836 5840 5843 5846 5848 5850 5853 5855 5857 5858 5859 5861 5861 5862 5862 5862 5862 5862 5861 5861 5860 5859 5858 5856 5854 5853 5850 5848 5845 5842 5840 5836 5833 5829 5826 5822 5818 5815 5812 5808 5805 5802 5799
5830 5833 5837 5839 5842 5844 5847 5849 5851 5852 5853 5855 5856 5856 5857 5857 5857 5857 5856 5855 5854 5853 5852 5850 5849 5847 5844 5842 5839 5836 5833 5829 5826 5822 5818 5814 5810 5807 5803 5800 5796 5793 5791
5823 5826 5830 5833 5835 5838 5840 5842 5844 5846 5847 5848 5849 5850 5851 5851 5851 5851 5850 5849 5848 5847 5845 5844 5842 5840 5838 5835 5832 5829 5826 5822 5818 5814 5810 5806 5802 5798 5795 5791 5788 5785 5782
5816 5819 5823 5826 5828 5831 5833 5835 5837 5839 5840 5842 5843 5843 5844 5844 5844 5844 5843 5842 5841 5840 5839 5837 5835 5833 5830 5827 5825 5822 5819 5815 5810 5806 5802 5798 5794 5790 5786 5782 5779 5776 5773
5809 5812 5815 5818 5820 5823 5826 5828 5830 5832 5833 5834 5835 5836 5837 5837 5837 5837 5836 5835 5834 5833 5832 5830 5827 5825 5823 5820 5817 5814 5812 5809 5804 5798 5793 5789 5785 5781 5777 5774 5770 5767 5764
5801 5804 5807 5810 5813 5815 5818 5820 5822 5824 5825 5827 5828 5829 5829 5829 5829 5829 5828 5828 5827 5825 5824 5822 5820 5818 5815 5813 5809 5805 5802 5799 5796 5792 5786 5781 5776 5772 5768 5765 5761 5758 5754
5792 5796 5799 5802 5804 5807 5809 5812 5814 5815 5817 5819 5820 5820 5821 5821 5821 5821 5820 5819 5818 5817 5816 5814 5811 5809 5807 5804 5801 5797 5793 5789 5785 5783 5779 5774 5768 5763 5759 5755 5751 5748 5744
5783 5787 5790 5793 5795 5798 5800 5803 5805 5807 5808 5810 5811 5812 5812 5813 5812 5812 5812 5811 5810 5809 5807 5805 5803 5800 5798 5795 5792 5788 5784 5779 5775 5772 5769 5765 5760 5755 5750 5746 5742 5739 5735
5774 5778 5781 5783 5786 5789 5791 5793 5795 5797 5799 5801 5802 5803 5803 5803 5803 5803 5802 5802 5801 5799 5798 5796 5793 5791 5788 5785 5782 5778 5774 5770 5766 5762 5758 5755 5751 5746 5741 5737 5733 5729 5725
Wind_Speed
14 13 12 11 9 8 6 5 5 4 4 3 2 2 1 2 3 4 5 6 6 7 8 8 9 9 10 10 11 11 11 12 13 13 14 15 15 16 17 17 18 18 18
14 13 12 11 9 8 7 6 5 4 4 3 2 1 1 2 3 4 6 7 7 8 8 9 9 10 11 11 11 12 12 12 13 14 15 16 16 17 17 18 18 19 19
15 14 12 11 9 8 7 6 5 5 4 3 2 2 2 3 4 6 7 7 8 8 9 9 10 10 11 11 12 12 13 13 14 15 16 17 17 18 18 19 19 20 20
16 14 13 11 10 9 8 7 6 5 4 3 3 2 3 4 5 7 8 8 9 9 9 10 10 11 11 12 12 13 14 15 15 16 17 18 18 19 19 20 20 21 21
18 16 14 12 11 10 9 8 7 6 5 4 3 3 4 5 6 7 8 9 10 10 10 10 10 11 12 12 13 14 15 16 16 17 18 19 20 20 21 22 22 22 22
19 17 15 14 12 11 10 8 7 6 5 4 4 4 5 6 7 8 9 10 10 10 10 10 11 11 12 12 13 14 15 16 17 18 19 20 21 22 23 23 23 24 24
21 18 17 16 14 13 11 10 8 7 6 5 5 6 7 8 9 9 10 11 11 11 11 11 11 12 12 13 14 15 16 17 19 20 21 22 23 23 24 25 25 25 25
23 21 19 17 16 15 13 12 10 8 7 6 6 7 8 9 10 11 11 12 12 12 12 12 12 13 14 14 15 17 18 19 20 21 22 23 24 25 25 26 26 26 26
26 23 20 19 18 17 15 13 12 10 9 8 8 8 9 10 11 11 12 12 13 13 13 13 14 15 15 16 17 18 19 20 21 23 24 25 26 27 27 27 27 27 28
27 25 22 21 20 19 17 15 13 12 10 9 9 9 10 11 11 12 12 13 13 14 14 15 15 16 17 18 18 19 20 21 22 24 25 26 27 28 29 29 29 29 29
29 27 24 23 22 20 19 17 15 13 11 10 10 10 11 12 12 12 13 13 13 14 14 15 16 17 18 19 19 20 21 22 23 24 26 27 28 29 30 30 31 31 31
31 29 27 24 23 22 21 19 17 15 13 12 12 12 13 13 13 14 14 14 14 15 15 16 17 18 19 20 21 22 23 24 25 26 27 29 30 31 32 32 33 33 32
34 31 29 27 25 24 22 21 19 17 16 14 14 14 14 15 15 15 15 16 16 16 17 17 18 19 20 22 23 24 25 26 27 29 30 31 32 33 34 34 34 34 34
35 33 31 29 27 26 25 23 21 20 18 17 16 16 16 17 17 17 17 18 18 18 19 19 20 21 22 24 25 26 27 29 30 32 33 34 35 36 36 36 36 36 36
37 35 34 31 30 29 27 25 24 22 20 19 19 19 19 19 19 19 20 20 20 20 21 22 22 23 25 26 27 28 30 31 32 34 35 37 38 38 38 38 38 38 37
39 37 35 34 33 31 30 28 26 24 23 22 22 21 22 22 22 22 22 22 22 22 23 24 25 26 27 28 30 31 32 33 35 36 38 39 40 40 40 39 38 38 38
40 39 37 36 35 34 33 31 29 27 26 25 25 25 25 24 24 24 25 25 25 25 26 27 28 29 30 31 32 34 35 36 37 39 40 41 41 41 41 40 39 39 38
41 40 39 38 37 36 35 34 32 31 30 29 28 28 28 27 27 27 27 28 27 27 28 29 30 31 32 34 35 36 37 38 40 41 42 43 43 43 42 41 40 39 39
42 41 41 40 40 39 38 36 35 34 33 32 32 31 30 30 30 29 30 30 30 30 31 32 33 34 35 36 37 38 39 40 42 43 45 45 44 44 42 42 41 40 39
43 42 42 42 42 41 40 39 38 37 36 35 35 34 33 33 32 32 32 33 33 33 33 34 35 36 37 38 39 40 41 42 44 46 46 45 45 43 43 42 41 41 40
44 43 43 43 43 42 41 41 40 40 39 38 37 37 36 36 35 35 34 34 35 35 36 37 38 39 40 41 41 41 42 44 45 46 46 46 44 43 43 42 41 41 41
47 46 45 44 44 43 43 43 43 43 42 41 40 40 39 38 38 37 37 37 37 38 38 39 40 41 42 42 43 44 44 45 45 46 45 45 44 44 43 43 42 42 42
50 49 48 47 47 46 46 46 45 44 43 43 42 42 41 41 40 39 39 39 40 40 40 41 42 43 43 43 45 46 47 47 46 44 43 43 43 43 43 42 42 43 43
51 51 50 49 48 48 48 48 47 46 45 45 44 44 43 42 42 42 42 42 42 42 43 43 44 44 45 45 46 47 48 48 48 46 43 42 42 42 42 42 43 44 44
50 50 50 50 50 49 48 48 48 48 47 47 46 46 45 44 44 44 44 44 44 44 44 45 45 46 46 46 47 48 48 48 47 46 44 43 42 42 43 43 43 43 43
48 49 50 50 50 49 49 49 48 48 48 48 48 47 47 47 46 46 46 46 46 45 45 46 46 46 47 47 48 49 48 47 46 45 44 43 42 42 43 43 43 43 43
Wind_Direction
230 232 231 231 233 235 238 248 261 267 270 277 286 306 348 7 10 7 3 357 353 349 344 342 340 339 337 336 334 331 329 327 326 326 326 326 325 324 324 323 323 322 322
232 234 236 238 239 241 243 250 258 262 267 271 279 302 342 359 4 1 356 351 348 344 339 336 335 335 334 333 334 333 331 330 329 329 328 327 326 326 325 324 324 322 321
233 237 241 244 245 245 245 248 251 254 254 258 266 293 328 345 349 348 346 343 343 340 335 332 331 331 331 331 332 333 333 331 330 330 329 328 327 327 326 325 323 321 319
234 239 244 247 247 245 243 243 243 242 242 248 261 285 314 331 337 339 338 337 338 336 333 330 328 328 328 329 330 331 332 331 330 329 329 328 327 327 326 324 323 321 319
234 238 242 245 245 242 240 239 238 235 238 247 265 286 306 320 329 333 333 332 333 332 331 329 327 327 328 329 330 331 330 329 328 328 328 328 328 327 326 325 323 322 320
232 236 239 242 242 237 234 233 232 231 237 252 270 287 302 313 322 327 328 329 330 330 329 329 328 327 328 329 329 330 330 329 329 328 329 328 328 327 326 324 323 321 320
231 233 235 238 238 232 228 227 227 229 238 254 272 287 298 307 315 320 324 326 327 328 328 328 328 327 327 327 328 329 330 330 330 329 329 329 328 327 326 324 322 321 319
232 232 233 235 234 229 224 223 224 227 236 252 269 283 294 301 308 315 319 322 324 325 327 327 327 326 326 326 327 328 329 330 329 329 329 328 327 326 325 324 322 320 318
234 233 232 232 230 227 223 222 223 226 234 247 262 277 288 295 302 309 314 318 320 322 324 324 325 324 324 324 325 325 327 328 328 328 327 326 325 324 323 322 320 318 317
235 233 231 230 228 227 225 225 226 229 236 247 260 272 281 288 295 303 308 311 314 316 318 319 319 319 319 320 321 321 323 323 324 324 324 323 322 321 320 319 317 316 314
235 235 233 230 228 227 227 228 230 234 240 250 261 271 278 284 291 296 301 305 307 309 311 312 313 314 314 315 315 316 318 319 319 320 319 319 318 317 316 315 314 313 312
234 235 234 231 229 229 229 231 234 239 244 252 261 270 277 283 289 293 297 300 302 304 305 307 308 309 310 310 311 312 313 314 315 315 316 315 315 314 314 313 312 311 310
232 233 233 232 231 231 231 233 237 242 248 255 262 270 277 282 286 290 294 298 300 301 303 303 304 306 307 308 308 309 310 312 313 313 314 314 313 313 312 311 310 309 309
232 233 233 232 232 232 234 235 239 245 251 257 263 270 275 280 283 287 291 294 298 300 301 301 301 303 304 305 306 307 308 310 311 312 313 313 313 312 311 310 309 308 308
233 233 233 232 232 233 235 238 241 247 254 259 264 269 274 278 281 285 288 292 295 297 298 298 299 300 302 303 304 305 307 308 310 311 312 312 312 311 310 309 308 307 307
232 232 232 232 232 234 236 239 243 249 255 260 265 269 273 276 280 283 286 289 292 294 295 296 297 298 300 301 302 304 305 307 308 310 310 310 310 309 308 307 306 306 305
232 232 233 233 234 235 237 240 244 249 255 260 265 269 272 275 278 281 284 286 289 291 292 294 295 297 298 300 301 303 304 306 308 309 309 309 309 308 307 306 305 305 304
233 234 234 235 236 237 239 242 245 250 255 260 264 268 271 274 277 280 283 285 287 289 291 292 293 295 297 299 300 302 304 306 307 308 308 308 307 306 306 305 305 304 303
234 235 235 236 237 239 241 244 247 251 256 260 264 268 271 274 277 279 282 284 286 287 289 290 293 294 296 297 299 302 303 305 306 307 307 306 306 305 304 304 303 303 302
235 236 237 238 239 240 243 245 249 252 256 260 264 268 271 274 277 279 281 283 285 286 288 290 292 293 295 296 298 300 302 304 305 306 305 305 304 303 303 302 301 301 300
236 238 240 240 240 241 243 246 249 253 257 260 264 267 271 274 277 279 280 282 283 285 287 289 291 292 294 295 297 299 301 303 304 304 303 303 302 301 301 300 300 299 298
236 239 241 242 243 243 245 248 250 253 257 260 264 267 271 274 276 278 279 280 282 284 286 288 290 292 293 294 296 298 299 301 301 302 301 300 300 300 299 299 298 298 298
237 239 241 243 244 245 247 249 251 254 257 260 264 267 270 273 275 277 278 279 281 283 285 287 289 291 291 293 295 298 299 300 300 299 298 298 298 298 298 297 297 298 298
239 241 242 243 245 247 248 250 251 254 257 260 263 267 269 272 274 276 277 278 280 282 284 286 288 290 291 293 295 297 298 299 299 299 297 297 296 296 296 296 296 297 298
240 242 243 243 245 247 249 251 253 255 257 260 262 265 267 270 272 273 275 277 279 281 283 285 288 289 290 292 295 297 297 297 298 298 298 297 297 296 296 295 296 297 298
241 243 244 244 245 247 249 252 253 256 257 259 261 264 266 268 270 272 274 276 278 280 283 285 287 288 290 292 294 296 296 296 296 297 297 297 297 297 296 296 297 298 299